FW9422 Weather Reports


Display with metric or nautical units.
time (UTC)temp
F
wind
direction
speed
MPH
gust
MPH
rain 1hr
in
rain 24hr
in
rain mn
in
humidity
%
barometer
mb
20220702230111 68 347 8.0 17.0 0.00 0.00 0.00 61 1015.6
20220702225558 68 23 8.0 17.0 0.00 0.00 0.00 61 1015.6
20220702225059 68 348 7.0 15.0 0.00 0.00 0.00 60 1015.4
20220702224608 68 297 9.0 15.0 0.00 0.00 0.00 60 1015.6
20220702224101 69 352 5.0 17.0 0.00 0.00 0.00 60 1015.7
20220702223555 69 330 8.0 17.0 0.00 0.00 0.00 59 1015.7
20220702223110 70 13 6.0 13.0 0.00 0.00 0.00 59 1015.6
20220702222558 69 321 7.0 15.0 0.00 0.00 0.00 58 1015.6
20220702222058 70 329 7.0 15.0 0.00 0.00 0.00 57 1015.8
20220702221604 71 352 7.0 13.0 0.00 0.00 0.00 56 1015.6
20220702221057 71 350 7.0 15.0 0.00 0.00 0.00 56 1015.7
20220702220558 71 338 6.0 15.0 0.00 0.00 0.00 55 1015.5
20220702220110 72 338 6.0 13.0 0.00 0.00 0.00 53 1015.5
20220702215556 72 257 6.0 11.0 0.00 0.00 0.00 52 1015.6
20220702215058 72 255 4.0 11.0 0.00 0.00 0.00 52 1015.5
20220702214607 72 350 4.0 11.0 0.00 0.00 0.00 52 1015.5
20220702214058 71 298 5.0 11.0 0.00 0.00 0.00 53 1015.5
20220702213557 73 218 4.0 14.0 0.00 0.00 0.00 52 1015.6
20220702213104 71 340 7.0 16.0 0.00 0.00 0.00 55 1015.6
20220702212558 70 333 8.0 16.0 0.00 0.00 0.00 58 1015.6
20220702212100 70 26 6.0 12.0 0.00 0.00 0.00 56 1015.7
20220702211609 71 335 5.0 12.0 0.00 0.00 0.00 57 1015.8
20220702211058 71 336 5.0 13.0 0.00 0.00 0.00 58 1015.7
20220702210557 69 348 7.0 13.0 0.00 0.00 0.00 59 1015.7
20220702210106 70 335 7.0 15.0 0.00 0.00 0.00 59 1015.8
20220702205558 70 319 6.0 15.0 0.00 0.00 0.00 59 1015.7
20220702205057 70 12 8.0 16.0 0.00 0.00 0.00 59 1015.7
20220702204608 69 37 7.0 16.0 0.00 0.00 0.00 59 1015.6
20220702204058 70 33 5.0 13.0 0.00 0.00 0.00 58 1015.7
20220702203558 70 13 5.0 13.0 0.00 0.00 0.00 58 1015.7
20220702203111 69 333 7.0 13.0 0.00 0.00 0.00 60 1015.7
20220702202558 69 296 8.0 13.0 0.00 0.00 0.00 60 1015.7
20220702202058 70 23 5.0 13.0 0.00 0.00 0.00 58 1015.7
20220702201606 70 347 5.0 14.0 0.00 0.00 0.00 58 1015.7
20220702201059 69 26 6.0 14.0 0.00 0.00 0.00 60 1015.7
20220702200558 68 17 7.0 14.0 0.00 0.00 0.00 60 1015.8
20220702200108 69 32 5.0 14.0 0.00 0.00 0.00 61 1015.8
20220702195558 69 5 5.0 14.0 0.00 0.00 0.00 60 1015.8
20220702195057 69 302 4.0 13.0 0.00 0.00 0.00 60 1015.9
20220702194608 68 59 6.0 12.0 0.00 0.00 0.00 61 1016.0
20220702194057 68 347 6.0 13.0 0.00 0.00 0.00 61 1016.0
20220702193557 67 351 8.0 13.0 0.00 0.00 0.00 63 1016.1
20220702193103 68 38 6.0 12.0 0.00 0.00 0.00 60 1016.1
20220702192558 68 41 6.0 12.0 0.00 0.00 0.00 61 1016.1
20220702192058 68 5 4.0 13.0 0.00 0.00 0.00 63 1016.1
20220702191610 67 321 6.0 15.0 0.00 0.00 0.00 63 1016.1
20220702191101 68 352 8.0 15.0 0.00 0.00 0.00 61 1016.3
20220702190557 69 325 5.0 12.0 0.00 0.00 0.00 61 1016.1
20220702190106 68 57 4.0 11.0 0.00 0.00 0.00 61 1016.1
20220702185557 68 34 5.0 11.0 0.00 0.00 0.00 61 1016.2
20220702185057 68 325 3.0 11.0 0.00 0.00 0.00 60 1016.1
20220702184611 67 360 4.0 11.0 0.00 0.00 0.00 62 1016.1
20220702184056 68 300 3.0 8.0 0.00 0.00 0.00 61 1016.1
20220702183602 67 34 2.0 8.0 0.00 0.00 0.00 61 1016.1
20220702183104 67 335 3.0 8.0 0.00 0.00 0.00 61 1016.3
20220702182558 68 243 1.0 7.0 0.00 0.00 0.00 61 1016.2
20220702182103 67 311 2.0 7.0 0.00 0.00 0.00 62 1016.3
20220702181603 66 28 2.0 7.0 0.00 0.00 0.00 62 1016.2
20220702181058 66 17 3.0 8.0 0.00 0.00 0.00 61 1016.3
20220702180559 66 5 3.0 8.0 0.00 0.00 0.00 64 1016.3
20220702180101 65 333 2.0 6.0 0.00 0.00 0.00 65 1016.3
20220702175557 65 318 3.0 9.0 0.00 0.00 0.00 63 1016.3
20220702175058 66 12 4.0 9.0 0.00 0.00 0.00 63 1016.2
20220702174613 65 313 3.0 8.0 0.00 0.00 0.00 65 1016.2
20220702174058 64 293 3.0 8.0 0.00 0.00 0.00 66 1016.2
20220702173557 64 333 4.0 8.0 0.00 0.00 0.00 66 1016.2
20220702173106 64 314 4.0 8.0 0.00 0.00 0.00 66 1016.1
20220702172558 64 213 4.0 9.0 0.00 0.00 0.00 66 1016.3
20220702172058 63 17 3.0 9.0 0.00 0.00 0.00 67 1016.3
20220702171606 63 277 4.0 8.0 0.00 0.00 0.00 67 1016.3
20220702171058 63 336 3.0 8.0 0.00 0.00 0.00 68 1016.3
20220702170558 63 209 3.0 10.0 0.00 0.00 0.00 67 1016.2
20220702170106 63 281 2.0 10.0 0.00 0.00 0.00 67 1016.1
20220702165558 62 318 3.0 7.0 0.00 0.00 0.00 69 1016.1
20220702165058 62 254 3.0 9.0 0.00 0.00 0.00 69 1016.2
20220702164611 62 289 3.0 9.0 0.00 0.00 0.00 69 1016.4
20220702164057 62 284 2.0 8.0 0.00 0.00 0.00 70 1016.4
20220702163558 62 259 3.0 9.0 0.00 0.00 0.00 68 1016.4
20220702163109 62 214 3.0 9.0 0.00 0.00 0.00 71 1016.4
20220702162558 62 318 2.0 7.0 0.00 0.00 0.00 71 1016.4
20220702162058 61 279 2.0 6.0 0.00 0.00 0.00 71 1016.2
20220702161604 61 229 2.0 8.0 0.00 0.00 0.00 73 1016.2
20220702161101 61 277 3.0 8.0 0.00 0.00 0.00 73 1016.2
20220702160600 61 263 3.0 8.0 0.00 0.00 0.00 73 1016.1
20220702160118 60 261 3.0 8.0 0.00 0.00 0.00 74 1016.2
20220702155600 60 275 2.0 6.0 0.00 0.00 0.00 75 1016.1
20220702155058 60 315 2.0 6.0 0.00 0.00 0.00 75 1016.0
20220702154611 59 223 3.0 7.0 0.00 0.00 0.00 76 1016.0
20220702154057 59 291 2.0 10.0 0.00 0.00 0.00 76 1016.0
20220702153557 59 313 3.0 10.0 0.00 0.00 0.00 76 1016.0
20220702153105 59 252 2.0 7.0 0.00 0.00 0.00 76 1016.0
20220702152557 59 259 3.0 9.0 0.00 0.00 0.00 77 1016.0
20220702152058 59 328 4.0 9.0 0.00 0.00 0.00 77 1015.9
20220702151612 58 277 1.0 8.0 0.00 0.00 0.00 78 1015.8
20220702151102 58 277 2.0 7.0 0.00 0.00 0.00 78 1015.9
20220702150558 58 249 2.0 5.0 0.00 0.00 0.00 79 1015.8
20220702150109 58 243 3.0 7.0 0.00 0.00 0.00 79 1015.8
20220702145557 57 236 2.0 7.0 0.00 0.00 0.00 79 1015.7
20220702145057 57 258 2.0 7.0 0.00 0.00 0.00 79 1015.8
20220702144608 57 279 3.0 7.0 0.00 0.00 0.00 79 1015.8
20220702144057 58 260 1.0 7.0 0.00 0.00 0.00 79 1015.7
20220702143600 57 0 2.0 8.0 0.00 0.00 0.00 80 1015.8
20220702143110 57 252 3.0 8.0 0.00 0.00 0.00 80 1015.7
20220702142557 57 286 1.0 7.0 0.00 0.00 0.00 80 1015.7
20220702142057 57 261 2.0 7.0 0.00 0.00 0.00 80 1015.7
20220702141606 57 275 0.0 4.0 0.00 0.00 0.00 80 1015.7
20220702141057 57 261 1.0 4.0 0.00 0.00 0.00 81 1015.7
20220702140559 56 232 1.0 4.0 0.00 0.00 0.00 81 1015.7
20220702140108 56 234 1.0 3.0 0.00 0.00 0.00 82 1015.8
20220702135557 56 259 1.0 4.0 0.00 0.00 0.00 82 1015.7
20220702135057 56 240 1.0 4.0 0.00 0.00 0.00 82 1015.8
20220702134610 56 227 0.0 3.0 0.00 0.00 0.00 82 1015.7
20220702134101 56 249 1.0 3.0 0.00 0.00 0.00 82 1015.7
20220702133556 55 205 1.0 3.0 0.00 0.00 0.00 82 1015.7
20220702133109 55 263 1.0 3.0 0.00 0.00 0.00 82 1015.8
20220702132557 55 205 0.0 3.0 0.00 0.00 0.00 82 1015.8
20220702132058 55 258 1.0 3.0 0.00 0.00 0.00 82 1015.6
20220702131608 55 282 1.0 3.0 0.00 0.00 0.00 83 1015.7
20220702131057 55 237 0.0 2.0 0.00 0.00 0.00 83 1015.6
20220702130630 55 251 0.0 2.0 0.00 0.00 0.00 83 1015.5
20220702130104 55 0 0.0 2.0 0.00 0.00 0.00 83 1015.7
20220702125557 55 0 0.0 4.0 0.00 0.00 0.00 83 1015.6
20220702125057 55 271 1.0 4.0 0.00 0.00 0.00 83 1015.6
20220702124607 55 244 1.0 4.0 0.00 0.00 0.00 83 1015.6
20220702124054 55 292 1.0 4.0 0.00 0.00 0.00 83 1015.6
20220702123554 55 0 1.0 4.0 0.00 0.00 0.00 83 1015.4
20220702123105 55 0 1.0 4.0 0.00 0.00 0.00 83 1015.5
20220702122556 55 275 1.0 4.0 0.00 0.00 0.00 83 1015.5
20220702122054 55 293 1.0 4.0 0.00 0.00 0.00 82 1015.5
20220702121607 55 310 1.0 4.0 0.00 0.00 0.00 82 1015.4
20220702121101 55 232 2.0 5.0 0.00 0.00 0.00 82 1015.4
20220702120555 55 284 1.0 6.0 0.00 0.00 0.00 82 1015.4
20220702120115 55 277 2.0 6.0 0.00 0.00 0.00 82 1015.4
20220702115557 55 261 1.0 4.0 0.00 0.00 0.00 83 1015.3
20220702115054 55 243 1.0 4.0 0.00 0.00 0.00 83 1015.2
20220702114608 55 265 1.0 3.0 0.00 0.00 0.00 83 1015.4
20220702114056 55 248 0.0 3.0 0.00 0.00 0.00 84 1015.4
20220702113556 54 0 1.0 3.0 0.00 0.00 0.00 84 1015.4
20220702113109 54 261 0.0 3.0 0.00 0.00 0.00 83 1015.4
20220702112554 54 261 1.0 3.0 0.00 0.00 0.00 83 1015.3
20220702112053 54 0 0.0 2.0 0.00 0.00 0.00 83 1015.4
20220702111605 55 0 1.0 2.0 0.00 0.00 0.00 83 1015.3
20220702111055 55 242 0.0 2.0 0.00 0.00 0.00 83 1015.3
20220702110554 55 242 0.0 2.0 0.00 0.00 0.00 83 1015.4
20220702110112 55 292 1.0 2.0 0.00 0.00 0.00 83 1015.4
20220702105557 55 277 0.0 3.0 0.00 0.00 0.00 83 1015.4
20220702105057 55 277 1.0 3.0 0.00 0.00 0.00 83 1015.5
20220702104605 55 0 1.0 2.0 0.00 0.00 0.00 83 1015.5
20220702104056 55 289 0.0 2.0 0.00 0.00 0.00 83 1015.5
20220702103553 55 251 0.0 1.0 0.00 0.00 0.00 83 1015.6
20220702103114 55 251 0.0 2.0 0.00 0.00 0.00 83 1015.6
20220702102556 55 251 0.0 2.0 0.00 0.00 0.00 83 1015.6
20220702102055 55 0 0.0 2.0 0.00 0.00 0.00 83 1015.5
20220702101613 55 266 0.0 2.0 0.00 0.00 0.00 83 1015.6
20220702101054 55 0 0.0 2.0 0.00 0.00 0.00 83 1015.6
20220702100557 55 302 1.0 2.0 0.00 0.00 0.00 83 1015.6
20220702100112 55 303 0.0 2.0 0.00 0.00 0.00 83 1015.7
20220702095553 55 0 0.0 2.0 0.00 0.00 0.00 83 1015.7
20220702095055 55 262 0.0 2.0 0.00 0.00 0.00 83 1015.7
20220702094617 55 269 0.0 2.0 0.00 0.00 0.00 83 1015.6
20220702094055 55 296 1.0 3.0 0.00 0.00 0.00 83 1015.7
20220702093554 55 0 1.0 3.0 0.00 0.00 0.00 83 1015.8
20220702093110 55 293 1.0 3.0 0.00 0.00 0.00 82 1015.8
20220702092556 55 271 1.0 3.0 0.00 0.00 0.00 82 1015.8
20220702092054 55 315 0.0 3.0 0.00 0.00 0.00 82 1015.8
20220702091604 55 300 1.0 3.0 0.00 0.00 0.00 82 1015.7
20220702091058 56 288 1.0 3.0 0.00 0.00 0.00 83 1015.8
20220702090557 56 298 0.0 3.0 0.00 0.00 0.00 83 1015.9
20220702090102 56 0 1.0 3.0 0.00 0.00 0.00 83 1015.9
20220702085554 56 0 1.0 3.0 0.00 0.00 0.00 83 1015.9
20220702085053 55 315 1.0 2.0 0.00 0.00 0.00 83 1016.0
20220702084602 55 271 0.0 2.0 0.00 0.00 0.00 83 1015.9
20220702084056 55 0 0.0 3.0 0.00 0.00 0.00 83 1016.0
20220702083554 55 289 1.0 3.0 0.00 0.00 0.00 83 1016.0
20220702083109 55 300 1.0 3.0 0.00 0.00 0.00 83 1016.0
20220702082553 55 296 1.0 3.0 0.00 0.00 0.00 83 1016.0
20220702082054 55 288 1.0 4.0 0.00 0.00 0.00 83 1015.9
20220702081605 55 254 2.0 6.0 0.00 0.00 0.00 83 1015.9
20220702081055 55 304 2.0 6.0 0.00 0.00 0.00 83 1016.0
20220702080554 55 340 1.0 6.0 0.00 0.00 0.00 83 1016.0
20220702080109 56 351 1.0 4.0 0.00 0.00 0.00 83 1016.0
20220702075554 56 328 1.0 5.0 0.00 0.00 0.00 82 1016.1
20220702075057 56 314 3.0 5.0 0.00 0.00 0.00 82 1016.1
20220702074611 56 324 1.0 5.0 0.00 0.00 0.00 82 1016.1
20220702074057 56 290 2.0 5.0 0.00 0.00 0.00 81 1016.0
20220702073557 56 307 2.0 5.0 0.00 0.00 0.00 81 1016.0
20220702073102 57 339 0.0 3.0 0.00 0.00 0.00 81 1016.0
20220702072554 57 0 0.0 3.0 0.00 0.00 0.00 82 1016.0
20220702072056 57 343 1.0 3.0 0.00 0.00 0.00 82 1015.9
20220702071613 57 352 0.0 2.0 0.00 0.00 0.00 82 1015.9
20220702071055 56 0 0.0 1.0 0.00 0.00 0.00 83 1015.8
20220702070555 56 0 0.0 2.0 0.00 0.00 0.00 83 1015.9
20220702070111 56 0 1.0 3.0 0.00 0.00 0.00 84 1015.9
20220702065558 56 44 1.0 3.0 0.00 0.00 0.00 83 1015.9
20220702065053 56 46 1.0 2.0 0.00 0.00 0.00 84 1015.9
20220702064605 56 0 0.0 2.0 0.00 0.00 0.00 84 1015.9
20220702064056 56 0 0.0 2.0 0.00 0.00 0.00 84 1015.9
20220702063556 56 41 0.0 2.0 0.00 0.00 0.00 83 1015.9
20220702063111 56 38 0.0 2.0 0.00 0.00 0.00 84 1016.1
20220702062553 56 42 0.0 3.0 0.00 0.00 0.00 84 1016.0
20220702062054 56 39 0.0 3.0 0.00 0.00 0.00 83 1016.1
20220702061610 56 0 0.0 3.0 0.00 0.00 0.00 84 1016.1
20220702061101 56 352 1.0 3.0 0.00 0.00 0.00 83 1016.1
20220702060557 56 343 1.0 3.0 0.00 0.00 0.00 83 1016.2
20220702060106 56 360 1.0 3.0 0.00 0.00 0.00 83 1016.1
20220702055556 56 338 0.0 2.0 0.00 0.00 0.00 82 1016.2
20220702055054 56 5 1.0 3.0 0.00 0.00 0.00 83 1016.2
20220702054609 56 336 1.0 3.0 0.00 0.00 0.00 83 1016.3
20220702054059 56 5 1.0 3.0 0.00 0.00 0.00 83 1016.3
20220702053555 56 14 0.0 2.0 0.00 0.00 0.00 82 1016.2
20220702053104 56 348 0.0 2.0 0.00 0.00 0.00 83 1016.2
20220702052553 56 0 0.0 2.0 0.00 0.00 0.00 82 1016.2
20220702052057 57 0 0.0 2.0 0.00 0.00 0.00 82 1016.2
20220702051607 57 32 1.0 3.0 0.00 0.00 0.00 82 1016.2
20220702051053 57 349 1.0 5.0 0.00 0.00 0.00 82 1016.1
20220702050555 57 23 1.0 5.0 0.00 0.00 0.00 82 1016.0
20220702050105 57 331 1.0 5.0 0.00 0.00 0.00 83 1016.0
20220702045555 57 344 1.0 3.0 0.00 0.00 0.00 83 1016.0
20220702045057 57 29 1.0 4.0 0.00 0.00 0.00 84 1016.0
20220702044606 57 39 1.0 4.0 0.00 0.00 0.00 85 1016.0
20220702044057 57 15 1.0 8.0 0.00 0.00 0.00 85 1015.8
20220702043554 57 319 3.0 8.0 0.00 0.00 0.00 85 1015.8
20220702043108 57 338 2.0 9.0 0.00 0.00 0.00 85 1015.7
20220702042553 57 12 3.0 10.0 0.00 0.00 0.00 85 1015.7
20220702042057 57 346 3.0 10.0 0.00 0.00 0.00 84 1015.5
20220702041607 57 332 3.0 10.0 0.00 0.00 0.00 84 1015.5
20220702041058 57 320 4.0 10.0 0.00 0.00 0.00 83 1015.6
20220702040554 57 292 3.0 11.0 0.00 0.00 0.00 83 1015.5
20220702040108 58 352 5.0 11.0 0.00 0.00 0.00 82 1015.4
20220702035556 58 25 5.0 11.0 0.00 0.00 0.00 82 1015.4
20220702035057 58 13 3.0 11.0 0.00 0.00 0.00 82 1015.4
20220702034605 58 27 5.0 11.0 0.00 0.00 0.00 82 1015.4
20220702034057 58 311 4.0 10.0 0.00 0.00 0.00 81 1015.3
20220702033600 58 343 4.0 12.0 0.00 0.00 0.00 81 1015.3
20220702033111 59 321 6.0 12.0 0.00 0.00 0.00 81 1015.4
20220702032558 59 331 5.0 10.0 0.00 0.00 0.00 81 1015.3
20220702032059 59 298 4.0 10.0 0.00 0.00 0.00 80 1015.2
20220702031614 59 321 4.0 8.0 0.00 0.00 0.00 79 1015.2
20220702031059 60 273 4.0 8.0 0.00 0.00 0.00 79 1015.2
20220702030559 60 315 4.0 9.0 0.00 0.00 0.00 78 1015.2
20220702030112 61 321 4.0 11.0 0.00 0.00 0.00 77 1015.2
20220702025557 61 350 5.0 11.0 0.00 0.00 0.00 77 1015.2
20220702025056 61 351 5.0 10.0 0.00 0.00 0.00 76 1015.1
20220702024611 61 315 6.0 11.0 0.00 0.00 0.00 75 1015.1
20220702024057 62 333 4.0 11.0 0.00 0.00 0.00 75 1015.2
20220702023556 62 325 5.0 11.0 0.00 0.00 0.00 74 1015.0
20220702023111 62 300 4.0 11.0 0.00 0.00 0.00 73 1015.0
20220702022559 63 360 6.0 11.0 0.00 0.00 0.00 72 1015.0
20220702022101 63 317 6.0 11.0 0.00 0.00 0.00 71 1015.1
20220702021614 64 268 5.0 12.0 0.00 0.00 0.00 71 1014.9
20220702021059 64 5 5.0 12.0 0.00 0.00 0.00 70 1015.0
20220702020558 64 342 4.0 12.0 0.00 0.00 0.00 71 1014.9
20220702020117 64 342 5.0 11.0 0.00 0.00 0.00 72 1014.8
20220702015602 65 299 5.0 11.0 0.00 0.00 0.00 71 1014.9
20220702015057 65 327 4.0 13.0 0.00 0.00 0.00 70 1014.8
20220702014612 65 333 5.0 13.0 0.00 0.00 0.00 70 1014.9
20220702014102 66 40 4.0 10.0 0.00 0.00 0.00 69 1015.0
20220702013556 66 308 4.0 10.0 0.00 0.00 0.00 69 1014.8
20220702013113 66 331 4.0 13.0 0.00 0.00 0.00 69 1014.9
20220702012558 66 301 6.0 13.0 0.00 0.00 0.00 68 1014.9
20220702012101 66 271 6.0 11.0 0.00 0.00 0.00 67 1014.9
20220702011608 67 311 6.0 12.0 0.00 0.00 0.00 67 1014.7
20220702011101 67 299 6.0 12.0 0.00 0.00 0.00 66 1014.8
20220702010600 67 350 6.0 13.0 0.00 0.00 0.00 65 1014.7
20220702010106 67 248 5.0 13.0 0.00 0.00 0.00 64 1014.7
20220702005556 68 322 5.0 11.0 0.00 0.00 0.00 63 1014.6
20220702005102 68 297 6.0 12.0 0.00 0.00 0.00 63 1014.8
20220702004610 69 342 6.0 12.0 0.00 0.00 0.00 62 1014.8
20220702004054 69 352 5.0 12.0 0.00 0.00 0.00 62 1014.8
20220702003559 69 346 5.0 11.0 0.00 0.00 0.00 63 1014.9
20220702003113 68 340 6.0 11.0 0.00 0.00 0.00 63 1014.9
20220702002557 69 311 4.0 11.0 0.00 0.00 0.00 63 1014.9
20220702002054 69 327 6.0 11.0 0.00 0.00 0.00 63 1015.0
20220702001608 69 333 5.0 14.0 0.00 0.00 0.00 62 1015.0
20220702001057 68 295 7.0 14.0 0.00 0.00 0.00 64 1015.1
20220702000554 69 334 5.0 13.0 0.00 0.00 0.00 62 1015.2
20220702000131 69 293 6.0 12.0 0.00 0.00 0.00 62 1015.1
20220701235554 70 329 6.0 13.0 0.00 0.00 0.00 62 1015.2
20220701235059 70 323 5.0 13.0 0.00 0.00 0.00 61 1015.3
20220701234610 69 343 7.0 13.0 0.00 0.00 0.00 61 1015.2
20220701234054 70 13 6.0 12.0 0.00 0.00 0.00 61 1015.2
20220701233556 70 327 6.0 12.0 0.00 0.00 0.00 61 1015.2
20220701233110 70 338 6.0 12.0 0.00 0.00 0.00 60 1015.3
20220701232556 70 15 5.0 12.0 0.00 0.00 0.00 60 1015.3
20220701232058 71 308 6.0 13.0 0.00 0.00 0.00 59 1015.3
20220701231610 71 311 3.0 13.0 0.00 0.00 0.00 57 1015.3
20220701231056 71 319 6.0 11.0 0.00 0.00 0.00 56 1015.4
20220701230558 72 315 5.0 11.0 0.00 0.00 0.00 58 1015.4